Regional Weather Roundup
Issued by NWS

Home | Current Version | Previous Version | Graphics & Text | Print | Product List | Glossary Off
Versions: 1 2 3 4 5 6 7 8 9 10 11 12 13 14 15 16 17 18 19 20 21 22 23 24 25 26 27 28 29 30 31 32 33 34 35 36 37 38 39 40 41 42 43 44 45 46 47 48 49 50

757
ASUS43 KTOP 231508
RWRKS

WEATHER ROUNDUP FOR KANSAS
NATIONAL WEATHER SERVICE GOODLAND KS
1000 AM CDT THU MAR 23 2017

NOTE:  "FAIR" INDICATES FEW OR NO CLOUDS BELOW 12,000 FEET WITH NO
SIGNIFICANT WEATHER AND/OR OBSTRUCTIONS TO VISIBILITY.

KSZ001>006-013>018-027>032-041>047-231600-
NORTHWEST KANSAS

CITY           SKY/WX    TMP DP  RH WIND       PRES   REMARKS
GOODLAND       CLOUDY    50  48  93 S18       29.70F FOG
HAYS             N/A     60  55  83 S23G29    29.77F
HILL CITY      CLOUDY    58  57  97 S13       29.75F FOG
RUSSELL        CLOUDY    58  54  86 S24G35    29.79F
$$

KSZ061>065-074>080-084>089-231600-
SOUTHWEST KANSAS

CITY           SKY/WX    TMP DP  RH WIND       PRES   REMARKS
DODGE CITY     CLOUDY    62  56  80 S21G30    29.79F HAZE
ELKHART          N/A     61  48  62 S23         N/A
GARDEN CITY    MOSUNNY   62  55  77 S24G33    29.76F
GREAT BEND     CLOUDY    59  55  88 S25G31    29.82F
LIBERAL        CLOUDY    61  54  77 S22       29.81S
PRATT          CLOUDY    55  53  93 S17G24    29.86F
$$

KSZ066>073-081>083-090>101-231600-
SOUTHEAST KANSAS

CITY           SKY/WX    TMP DP  RH WIND       PRES   REMARKS
CHANUTE        MOSUNNY   61  45  55 S22G31    30.04F
COFFEYVILLE    PTSUNNY   61  46  57 SE15G24   30.05F
HUTCHINSON     CLOUDY    60  52  74 S24G31    29.89F
MEDICINE LODGE   N/A     58  54  86 SE9G25    29.88F
NEWTON         CLOUDY    58  50  75 S24       29.92F
PARSONS        MOSUNNY   63  46  54 S15G23    30.06S
WICHITA INTL   CLOUDY    60  51  72 S23G35    29.93S
WICHITA JABRA  PTSUNNY   59  50  72 S20G29    29.94S
WICHITA MCCONL CLOUDY    58  49  71 S22       29.94S
WINFIELD       SUNNY     59  49  69 SE20G29   29.98F
$$

KSZ007>012-019>026-033>040-048>060-102>105-231600-
NORTHEAST KANSAS

CITY           SKY/WX    TMP DP  RH WIND       PRES   REMARKS
CONCORDIA      CLOUDY    56  49  77 SE22G33   29.86F
EMPORIA        SUNNY     60  48  64 S23G32    29.97F
LAWRENCE       PTSUNNY   59  41  51 SE18G24   30.03F
MANHATTAN      MOSUNNY   62  51  67 S16G26    29.93F
MARYSVILLE     CLOUDY    55  41  58 S17G23    29.92F
OLATHE IND     MOSUNNY   55  38  52 S18       30.05S
OLATHE EXE     PTSUNNY   54  38  54 S14       30.05F
SALINA         CLOUDY    61  51  70 S20G26    29.88F
TOPEKA BILLARD MOSUNNY   59  43  55 SE16G24   30.00F
TOPEKA FORBES  SUNNY     60  43  53 S20G26    29.99F
$$




USA.gov is the U.S. government's official web portal to all federal, state and local government web resources and services.